Dalaman International Airport Dalaman TR
ICAO: LTBS
IATA: DLM
Category: Large
Scheduled Services: Yes

Elevation: 20 ft
TransAlt. 12000 ft.

Airport Communications:
APP:119.225
ATIS:127.35
GND:121.9
TWR:118.5

LTBS Zoom In..

If you have problems with the map follow the link
https://www.worldairports.se/pages/airport.php?
ICAO=LTBS

Runways:

(A) RW 01 length 9843 ft width 148 ft
ILS 110.10 / hdg 12

(B) RW 19 length 9843 ft width 148 ft
---- / hdg 192

Location; LTBS
Day. 22 / Time. 12.50 Zulu
* QNH: 1016
* Temperature: 16° c. 60.8°f.
* Wind from: 220° Speed 07 kn.
Dewpoint: 09° c.
Visibility: 10 km or more.
Clouds: Scattered 3000 ft.
No significant changes expected in the near future.

LTBS 221250Z 22007KT 170V250 9999 SCT030 16/09 Q1016 NOSIG


Wind From 220°
Speed 07 kn.

 
 
jpsmedia.com for Web Design worldairports.se 2019   terms of use